| time (UTC) | temp F | wind direction | speed MPH | gust MPH | rain 1hr in | rain 24hr in | rain mn in | humidity % | barometer mb |
| 20260904174046 | 85 | 115 | 1.0 | 6.0 | 0.00 | 0.00 | 0.00 | 32 | 1015.7 |
| 20260904173645 | 84 | 171 | 6.0 | 6.0 | 0.00 | 0.00 | 0.00 | 32 | 1015.6 |
| 20260904173244 | 84 | 164 | 3.0 | 6.0 | 0.00 | 0.00 | 0.00 | 33 | 1015.6 |
| 20260904172843 | 84 | 274 | 3.0 | 5.0 | 0.00 | 0.00 | 0.00 | 33 | 1015.6 |
| 20260904172040 | 81 | 130 | 5.0 | 6.0 | 0.00 | 0.00 | 0.00 | 34 | 1015.6 |
| 20260904171639 | 82 | 119 | 0.0 | 5.0 | 0.00 | 0.00 | 0.00 | 34 | 1015.6 |
| 20260904170836 | 79 | 117 | 1.0 | 4.0 | 0.00 | 0.00 | 0.00 | 35 | 1015.6 |
| 20260904170436 | 79 | 40 | 1.0 | 7.0 | 0.00 | 0.00 | 0.00 | 36 | 1015.5 |
| 20260904170036 | 78 | 135 | 5.0 | 8.0 | 0.00 | 0.00 | 0.00 | 36 | 1015.4 |
| 20260904165632 | 79 | 157 | 6.0 | 8.0 | 0.00 | 0.00 | 0.00 | 37 | 1015.4 |
| 20260904165230 | 78 | 85 | 4.0 | 7.0 | 0.00 | 0.00 | 0.00 | 37 | 1015.4 |
| 20260904164834 | 79 | 137 | 5.0 | 5.0 | 0.00 | 0.00 | 0.00 | 38 | 1015.3 |
| 20260904164029 | 78 | 132 | 1.0 | 6.0 | 0.00 | 0.00 | 0.00 | 39 | 1015.3 |
| 20260904163626 | 77 | 81 | 1.0 | 7.0 | 0.00 | 0.00 | 0.00 | 39 | 1015.3 |
| 20260904163225 | 76 | 87 | 6.0 | 8.0 | 0.00 | 0.00 | 0.00 | 40 | 1015.3 |
| 20260904162823 | 76 | 83 | 7.0 | 7.0 | 0.00 | 0.00 | 0.00 | 40 | 1015.3 |
| 20260904162422 | 76 | 112 | 3.0 | 7.0 | 0.00 | 0.00 | 0.00 | 41 | 1015.3 |
| 20260904161619 | 76 | 78 | 5.0 | 8.0 | 0.00 | 0.00 | 0.00 | 42 | 1015.3 |
| 20260904160415 | 77 | 173 | 1.0 | 4.0 | 0.00 | 0.00 | 0.00 | 45 | 1015.2 |
| 20260904155607 | 75 | 175 | 3.0 | 4.0 | 0.00 | 0.00 | 0.00 | 46 | 1015.3 |
| 20260904154805 | 72 | 83 | 2.0 | 5.0 | 0.00 | 0.00 | 0.00 | 47 | 1015.3 |
| 20260904154403 | 71 | 119 | 4.0 | 6.0 | 0.00 | 0.00 | 0.00 | 47 | 1015.3 |
| 20260904154001 | 70 | 103 | 3.0 | 5.0 | 0.00 | 0.00 | 0.00 | 47 | 1015.2 |
| 20260904153600 | 69 | 99 | 4.0 | 6.0 | 0.00 | 0.00 | 0.00 | 47 | 1015.3 |
| 20260904153159 | 69 | 110 | 3.0 | 5.0 | 0.00 | 0.00 | 0.00 | 47 | 1015.2 |
| 20260904152758 | 70 | 81 | 4.0 | 6.0 | 0.00 | 0.00 | 0.00 | 48 | 1015.2 |
| 20260904152358 | 70 | 94 | 3.0 | 5.0 | 0.00 | 0.00 | 0.00 | 48 | 1015.2 |
| 20260904151956 | 70 | 90 | 4.0 | 6.0 | 0.00 | 0.00 | 0.00 | 49 | 1015.2 |
| 20260904151153 | 70 | 132 | 3.0 | 5.0 | 0.00 | 0.00 | 0.00 | 50 | 1015.1 |
| 20260904145949 | 67 | 137 | 0.0 | 3.0 | 0.00 | 0.00 | 0.00 | 51 | 1015.1 |
| 20260904145548 | 67 | 42 | 0.0 | 1.0 | 0.00 | 0.00 | 0.00 | 51 | 1015.0 |
| 20260904144747 | 67 | 36 | 0.0 | 1.0 | 0.00 | 0.00 | 0.00 | 52 | 1014.9 |
| 20260904143541 | 65 | 315 | 0.0 | 1.0 | 0.00 | 0.00 | 0.00 | 52 | 1014.9 |
| 20260904142340 | 63 | 274 | 0.0 | 0.0 | 0.00 | 0.00 | 0.00 | 53 | 1014.8 |
| 20260904141939 | 62 | 288 | 0.0 | 0.0 | 0.00 | 0.00 | 0.00 | 53 | 1014.7 |
| 20260904141535 | 61 | 182 | 0.0 | 0.0 | 0.00 | 0.00 | 0.00 | 53 | 1014.6 |
| 20260904141134 | 60 | 233 | 0.0 | 0.0 | 0.00 | 0.00 | 0.00 | 53 | 1014.6 |
| 20260904140734 | 60 | 237 | 0.0 | 0.0 | 0.00 | 0.00 | 0.00 | 53 | 1014.5 |
| 20260904140330 | 59 | 232 | 0.0 | 0.0 | 0.00 | 0.00 | 0.00 | 53 | 1014.6 |
| 20260904135929 | 58 | 234 | 0.0 | 0.0 | 0.00 | 0.00 | 0.00 | 53 | 1014.4 |
| 20260904135528 | 58 | 279 | 0.0 | 0.0 | 0.00 | 0.00 | 0.00 | 53 | 1014.4 |
| 20260904134727 | 58 | 308 | 0.0 | 0.0 | 0.00 | 0.00 | 0.00 | 53 | 1014.3 |
| 20260904134325 | 58 | 279 | 0.0 | 1.0 | 0.00 | 0.00 | 0.00 | 53 | 1014.2 |
| 20260904133923 | 58 | 274 | 1.0 | 1.0 | 0.00 | 0.00 | 0.00 | 53 | 1014.2 |
| 20260904133121 | 58 | 292 | 0.0 | 0.0 | 0.00 | 0.00 | 0.00 | 52 | 1014.3 |
| 20260904131917 | 58 | 294 | 0.0 | 0.0 | 0.00 | 0.00 | 0.00 | 52 | 1014.3 |
| 20260904131516 | 58 | 299 | 0.0 | 0.0 | 0.00 | 0.00 | 0.00 | 52 | 1014.3 |
| 20260904130714 | 58 | 186 | 0.0 | 0.0 | 0.00 | 0.00 | 0.00 | 52 | 1014.3 |
| 20260904130312 | 58 | 184 | 0.0 | 0.0 | 0.00 | 0.00 | 0.00 | 52 | 1014.3 |
| 20260904125107 | 58 | 209 | 0.0 | 1.0 | 0.00 | 0.00 | 0.00 | 52 | 1014.2 |
| 20260904124305 | 58 | 247 | 0.0 | 0.0 | 0.00 | 0.00 | 0.00 | 52 | 1014.2 |
| 20260904123904 | 58 | 274 | 0.0 | 0.0 | 0.00 | 0.00 | 0.00 | 52 | 1014.2 |
| 20260904123102 | 58 | 283 | 0.0 | 0.0 | 0.00 | 0.00 | 0.00 | 52 | 1014.1 |
| 20260904122700 | 58 | 279 | 0.0 | 0.0 | 0.00 | 0.00 | 0.00 | 52 | 1014.1 |
| 20260904121858 | 58 | 241 | 1.0 | 1.0 | 0.00 | 0.00 | 0.00 | 52 | 1014.1 |
| 20260904121457 | 58 | 283 | 1.0 | 1.0 | 0.00 | 0.00 | 0.00 | 52 | 1014.1 |
| 20260904121055 | 58 | 274 | 0.0 | 0.0 | 0.00 | 0.00 | 0.00 | 52 | 1014.1 |
| 20260904120656 | 58 | 288 | 0.0 | 0.0 | 0.00 | 0.00 | 0.00 | 52 | 0.1 |
| 20260904120654 | 58 | 288 | 0.0 | 0.0 | 0.00 | 0.00 | 0.00 | 52 | 1014.0 |
| 20260904120252 | 58 | 279 | 0.0 | 1.0 | 0.00 | 0.00 | 0.00 | 52 | 1014.1 |
| 20260904115852 | 58 | 335 | 0.0 | 1.0 | 0.00 | 0.00 | 0.00 | 52 | 1014.0 |
| 20260904115450 | 58 | 42 | 1.0 | 1.0 | 0.00 | 0.00 | 0.00 | 52 | 1014.0 |
| 20260904115049 | 58 | 283 | 0.0 | 0.0 | 0.00 | 0.00 | 0.00 | 52 | 1014.1 |
| 20260904114649 | 58 | 274 | 0.0 | 0.0 | 0.00 | 0.00 | 0.00 | 52 | 1014.0 |
| 20260904114246 | 58 | 279 | 0.0 | 0.0 | 0.00 | 0.00 | 0.00 | 52 | 1014.1 |
| 20260904113443 | 58 | 285 | 0.0 | 1.0 | 0.00 | 0.00 | 0.00 | 52 | 1014.1 |
| 20260904112641 | 58 | 301 | 0.0 | 0.0 | 0.00 | 0.00 | 0.00 | 53 | 1014.2 |
| 20260904112241 | 58 | 279 | 0.0 | 0.0 | 0.00 | 0.00 | 0.00 | 53 | 1014.1 |
| 20260904111839 | 58 | 339 | 0.0 | 2.0 | 0.00 | 0.00 | 0.00 | 53 | 1014.2 |
| 20260904111437 | 58 | 270 | 0.0 | 0.0 | 0.00 | 0.00 | 0.00 | 53 | 1014.1 |
| 20260904111036 | 58 | 288 | 0.0 | 1.0 | 0.00 | 0.00 | 0.00 | 53 | 1014.1 |
| 20260904110634 | 58 | 272 | 0.0 | 1.0 | 0.00 | 0.00 | 0.00 | 53 | 1014.2 |
| 20260904110233 | 58 | 274 | 0.0 | 0.0 | 0.00 | 0.00 | 0.00 | 53 | 1014.2 |
| 20260904105832 | 58 | 288 | 0.0 | 0.0 | 0.00 | 0.00 | 0.00 | 52 | 1014.2 |
| 20260904105431 | 58 | 283 | 0.0 | 0.0 | 0.00 | 0.00 | 0.00 | 52 | 1014.2 |
| 20260904105029 | 58 | 333 | 0.0 | 0.0 | 0.00 | 0.00 | 0.00 | 52 | 1014.2 |
| 20260904104628 | 58 | 321 | 0.0 | 0.0 | 0.00 | 0.00 | 0.00 | 52 | 1014.1 |
| 20260904104227 | 58 | 330 | 0.0 | 0.0 | 0.00 | 0.00 | 0.00 | 52 | 1014.2 |
| 20260904103425 | 58 | 330 | 0.0 | 0.0 | 0.00 | 0.00 | 0.00 | 52 | 1014.0 |
| 20260904103023 | 58 | 326 | 0.0 | 0.0 | 0.00 | 0.00 | 0.00 | 52 | 1014.1 |
| 20260904102621 | 58 | 321 | 0.0 | 0.0 | 0.00 | 0.00 | 0.00 | 52 | 1014.1 |
| 20260904102220 | 58 | 319 | 0.0 | 0.0 | 0.00 | 0.00 | 0.00 | 52 | 1014.1 |
| 20260904101819 | 58 | 330 | 0.0 | 0.0 | 0.00 | 0.00 | 0.00 | 51 | 1014.0 |
| 20260904101420 | 58 | 346 | 0.0 | 0.0 | 0.00 | 0.00 | 0.00 | 51 | 1014.0 |
| 20260904100615 | 58 | 328 | 0.0 | 0.0 | 0.00 | 0.00 | 0.00 | 51 | 1014.0 |
| 20260904100214 | 58 | 337 | 0.0 | 0.0 | 0.00 | 0.00 | 0.00 | 51 | 1014.1 |
| 20260904095812 | 58 | 274 | 0.0 | 0.0 | 0.00 | 0.00 | 0.00 | 51 | 1014.1 |
| 20260904095412 | 58 | 279 | 0.0 | 0.0 | 0.00 | 0.00 | 0.00 | 51 | 1013.9 |
| 20260904095010 | 58 | 279 | 0.0 | 0.0 | 0.00 | 0.00 | 0.00 | 51 | 1013.9 |
| 20260904094609 | 58 | 292 | 0.0 | 0.0 | 0.00 | 0.00 | 0.00 | 51 | 1014.1 |
| 20260904094208 | 58 | 247 | 0.0 | 0.0 | 0.00 | 0.00 | 0.00 | 51 | 1013.9 |
| 20260904093806 | 58 | 274 | 0.0 | 0.0 | 0.00 | 0.00 | 0.00 | 51 | 1013.9 |
| 20260904093405 | 58 | 274 | 0.0 | 0.0 | 0.00 | 0.00 | 0.00 | 51 | 1013.9 |
| 20260904092603 | 59 | 274 | 0.0 | 0.0 | 0.00 | 0.00 | 0.00 | 51 | 1013.9 |
| 20260904092201 | 59 | 288 | 0.0 | 0.0 | 0.00 | 0.00 | 0.00 | 51 | 1013.9 |
| 20260904091358 | 59 | 227 | 0.0 | 0.0 | 0.00 | 0.00 | 0.00 | 50 | 1013.9 |
| 20260904090957 | 59 | 292 | 0.0 | 0.0 | 0.00 | 0.00 | 0.00 | 50 | 1013.8 |
| 20260904090556 | 59 | 335 | 0.0 | 0.0 | 0.00 | 0.00 | 0.00 | 50 | 1013.8 |
| 20260904090155 | 59 | 306 | 0.0 | 0.0 | 0.00 | 0.00 | 0.00 | 50 | 1013.9 |
| 20260904085754 | 59 | 274 | 0.0 | 1.0 | 0.00 | 0.00 | 0.00 | 50 | 1013.9 |
| 20260904085352 | 59 | 279 | 0.0 | 0.0 | 0.00 | 0.00 | 0.00 | 50 | 1014.0 |
| 20260904084950 | 59 | 301 | 0.0 | 0.0 | 0.00 | 0.00 | 0.00 | 50 | 1013.9 |
| 20260904084549 | 59 | 294 | 0.0 | 0.0 | 0.00 | 0.00 | 0.00 | 50 | 1014.1 |
| 20260904084148 | 60 | 297 | 0.0 | 0.0 | 0.00 | 0.00 | 0.00 | 50 | 1014.1 |
| 20260904083747 | 60 | 184 | 0.0 | 0.0 | 0.00 | 0.00 | 0.00 | 50 | 1014.1 |
| 20260904082945 | 60 | 294 | 0.0 | 0.0 | 0.00 | 0.00 | 0.00 | 50 | 1014.1 |
| 20260904082544 | 60 | 292 | 0.0 | 0.0 | 0.00 | 0.00 | 0.00 | 50 | 1014.0 |
| 20260904082142 | 60 | 306 | 0.0 | 0.0 | 0.00 | 0.00 | 0.00 | 49 | 1014.1 |
| 20260904081741 | 60 | 38 | 0.0 | 0.0 | 0.00 | 0.00 | 0.00 | 49 | 1014.2 |
| 20260904081339 | 60 | 42 | 0.0 | 0.0 | 0.00 | 0.00 | 0.00 | 49 | 1014.2 |
| 20260904080938 | 61 | 344 | 0.0 | 0.0 | 0.00 | 0.00 | 0.00 | 49 | 1014.3 |
| 20260904080537 | 61 | 337 | 0.0 | 0.0 | 0.00 | 0.00 | 0.00 | 49 | 1014.3 |
| 20260904075333 | 61 | 42 | 0.0 | 0.0 | 0.00 | 0.00 | 0.00 | 49 | 1014.4 |
| 20260904074932 | 61 | 36 | 0.0 | 0.0 | 0.00 | 0.00 | 0.00 | 49 | 1014.4 |
| 20260904074531 | 61 | 40 | 0.0 | 0.0 | 0.00 | 0.00 | 0.00 | 49 | 1014.4 |
| 20260904074129 | 61 | 45 | 0.0 | 0.0 | 0.00 | 0.00 | 0.00 | 48 | 1014.4 |
| 20260904073727 | 61 | 87 | 0.0 | 0.0 | 0.00 | 0.00 | 0.00 | 48 | 1014.3 |
| 20260904073326 | 61 | 85 | 0.0 | 0.0 | 0.00 | 0.00 | 0.00 | 48 | 1014.3 |
| 20260904072925 | 62 | 139 | 0.0 | 0.0 | 0.00 | 0.00 | 0.00 | 48 | 1014.3 |
| 20260904071722 | 62 | 274 | 0.0 | 0.0 | 0.00 | 0.00 | 0.00 | 48 | 1014.2 |
| 20260904071320 | 62 | 288 | 0.0 | 0.0 | 0.00 | 0.00 | 0.00 | 48 | 1014.1 |
| 20260904070517 | 62 | 288 | 0.0 | 0.0 | 0.00 | 0.00 | 0.00 | 48 | 1014.1 |
| 20260904070119 | 62 | 279 | 0.0 | 0.0 | 0.00 | 0.00 | 0.00 | 48 | 1014.1 |
| 20260904064912 | 63 | 299 | 0.0 | 0.0 | 0.00 | 0.00 | 0.00 | 47 | 1014.1 |
| 20260904064110 | 63 | 137 | 0.0 | 0.0 | 0.00 | 0.00 | 0.00 | 47 | 1014.0 |
| 20260904063709 | 63 | 135 | 0.0 | 0.0 | 0.00 | 0.00 | 0.00 | 47 | 1014.0 |
| 20260904063308 | 64 | 137 | 0.0 | 0.0 | 0.00 | 0.00 | 0.00 | 47 | 1014.0 |
| 20260904062103 | 64 | 141 | 0.0 | 0.0 | 0.00 | 0.00 | 0.00 | 47 | 1014.0 |
| 20260904060904 | 64 | 135 | 1.0 | 1.0 | 0.00 | 0.00 | 0.00 | 47 | 1013.9 |
| 20260904060459 | 64 | 137 | 1.0 | 1.0 | 0.00 | 0.00 | 0.00 | 47 | 1013.9 |
| 20260904060057 | 64 | 135 | 1.0 | 1.0 | 0.00 | 0.00 | 0.00 | 46 | 1013.9 |
| 20260904055655 | 64 | 83 | 0.0 | 1.0 | 0.00 | 0.00 | 0.00 | 46 | 1013.9 |
| 20260904055254 | 64 | 135 | 1.0 | 1.0 | 0.00 | 0.00 | 0.00 | 46 | 1013.9 |
| 20260904054853 | 64 | 330 | 0.0 | 0.0 | 0.00 | 0.00 | 0.00 | 46 | 1013.9 |
| 20260904054452 | 64 | 326 | 0.0 | 0.0 | 0.00 | 0.00 | 0.00 | 46 | 1014.0 |
| 20260904054051 | 64 | 328 | 0.0 | 1.0 | 0.00 | 0.00 | 0.00 | 46 | 1014.0 |
| 20260904053651 | 65 | 337 | 0.0 | 0.0 | 0.00 | 0.00 | 0.00 | 46 | 1014.0 |
| 20260904053248 | 65 | 274 | 0.0 | 0.0 | 0.00 | 0.00 | 0.00 | 46 | 1013.9 |
| 20260904052847 | 65 | 279 | 0.0 | 0.0 | 0.00 | 0.00 | 0.00 | 46 | 1013.9 |
| 20260904052446 | 65 | 330 | 0.0 | 0.0 | 0.00 | 0.00 | 0.00 | 46 | 1013.9 |
| 20260904052044 | 65 | 330 | 0.0 | 0.0 | 0.00 | 0.00 | 0.00 | 45 | 1014.0 |
| 20260904051241 | 66 | 328 | 0.0 | 1.0 | 0.00 | 0.00 | 0.00 | 45 | 1014.0 |
| 20260904050038 | 66 | 283 | 0.0 | 1.0 | 0.00 | 0.00 | 0.00 | 45 | 1014.0 |
| 20260904045637 | 66 | 290 | 0.0 | 0.0 | 0.00 | 0.00 | 0.00 | 45 | 1014.1 |
| 20260904045236 | 66 | 308 | 0.0 | 0.0 | 0.00 | 0.00 | 0.00 | 44 | 1013.9 |
| 20260904044433 | 67 | 306 | 0.0 | 0.0 | 0.00 | 0.00 | 0.00 | 44 | 1014.0 |
| 20260904043630 | 67 | 135 | 0.0 | 1.0 | 0.00 | 0.00 | 0.00 | 44 | 1013.9 |
| 20260904043229 | 67 | 137 | 1.0 | 1.0 | 0.00 | 0.00 | 0.00 | 44 | 1013.8 |
| 20260904042828 | 67 | 137 | 1.0 | 2.0 | 0.00 | 0.00 | 0.00 | 44 | 1013.8 |
| 20260904042426 | 67 | 236 | 0.0 | 1.0 | 0.00 | 0.00 | 0.00 | 43 | 1013.9 |
| 20260904041624 | 67 | 232 | 0.0 | 1.0 | 0.00 | 0.00 | 0.00 | 43 | 1013.8 |
| 20260904041222 | 67 | 135 | 0.0 | 1.0 | 0.00 | 0.00 | 0.00 | 43 | 1013.8 |
| 20260904035617 | 68 | 137 | 0.0 | 2.0 | 0.00 | 0.00 | 0.00 | 42 | 1013.6 |
| 20260904035216 | 68 | 135 | 0.0 | 1.0 | 0.00 | 0.00 | 0.00 | 42 | 1013.5 |
| 20260904034815 | 68 | 189 | 0.0 | 1.0 | 0.00 | 0.00 | 0.00 | 41 | 1013.6 |
| 20260904034415 | 68 | 135 | 1.0 | 1.0 | 0.00 | 0.00 | 0.00 | 41 | 1013.5 |
| 20260904033611 | 68 | 135 | 1.0 | 1.0 | 0.00 | 0.00 | 0.00 | 41 | 1013.3 |
| 20260904032808 | 68 | 78 | 1.0 | 1.0 | 0.00 | 0.00 | 0.00 | 41 | 1013.3 |
| 20260904032407 | 68 | 135 | 1.0 | 2.0 | 0.00 | 0.00 | 0.00 | 40 | 1013.2 |
| 20260904031605 | 69 | 137 | 3.0 | 4.0 | 0.00 | 0.00 | 0.00 | 40 | 1013.3 |
| 20260904031206 | 69 | 135 | 4.0 | 4.0 | 0.00 | 0.00 | 0.00 | 39 | 1013.2 |
| 20260904030803 | 69 | 135 | 3.0 | 5.0 | 0.00 | 0.00 | 0.00 | 39 | 1013.1 |
| 20260904030401 | 69 | 144 | 4.0 | 5.0 | 0.00 | 0.00 | 0.00 | 39 | 1013.1 |
| 20260904025559 | 70 | 137 | 5.0 | 6.0 | 0.00 | 0.00 | 0.00 | 38 | 1013.0 |
| 20260904025158 | 70 | 139 | 5.0 | 6.0 | 0.00 | 0.00 | 0.00 | 38 | 1013.0 |
| 20260904024355 | 71 | 135 | 5.0 | 7.0 | 0.00 | 0.00 | 0.00 | 37 | 1013.0 |
| 20260904023552 | 71 | 139 | 5.0 | 7.0 | 0.00 | 0.00 | 0.00 | 36 | 1013.0 |
| 20260904023151 | 71 | 139 | 6.0 | 7.0 | 0.00 | 0.00 | 0.00 | 36 | 1012.9 |
| 20260904022749 | 72 | 137 | 6.0 | 7.0 | 0.00 | 0.00 | 0.00 | 35 | 1012.9 |
| 20260904022347 | 72 | 132 | 6.0 | 6.0 | 0.00 | 0.00 | 0.00 | 35 | 1012.8 |
| 20260904021138 | 73 | 130 | 5.0 | 7.0 | 0.00 | 0.00 | 0.00 | 33 | 1012.8 |
| 20260904020335 | 74 | 132 | 5.0 | 7.0 | 0.00 | 0.00 | 0.00 | 32 | 1012.8 |
| 20260904015934 | 75 | 112 | 4.0 | 8.0 | 0.00 | 0.00 | 0.00 | 32 | 1012.8 |
| 20260904015533 | 76 | 150 | 5.0 | 7.0 | 0.00 | 0.00 | 0.00 | 32 | 1012.9 |
| 20260904015131 | 76 | 166 | 3.0 | 7.0 | 0.00 | 0.00 | 0.00 | 31 | 1012.9 |
| 20260904014730 | 76 | 135 | 6.0 | 7.0 | 0.00 | 0.00 | 0.00 | 31 | 1012.8 |
| 20260904014329 | 76 | 137 | 6.0 | 8.0 | 0.00 | 0.00 | 0.00 | 30 | 1012.9 |
| 20260904013929 | 77 | 139 | 6.0 | 8.0 | 0.00 | 0.00 | 0.00 | 30 | |
| 20260904013526 | 77 | 135 | 7.0 | 9.0 | 0.00 | 0.00 | 0.00 | 29 | 1012.9 |
| 20260904013125 | 79 | 139 | 5.0 | 7.0 | 0.00 | 0.00 | 0.00 | 29 | 1012.8 |
| 20260904012724 | 79 | 168 | 2.0 | 6.0 | 0.00 | 0.00 | 0.00 | 29 | 1012.8 |
| 20260904012323 | 79 | 177 | 4.0 | 9.0 | 0.00 | 0.00 | 0.00 | 28 | 1012.8 |
| 20260904011921 | 80 | 189 | 4.0 | 9.0 | 0.00 | 0.00 | 0.00 | 28 | 1012.8 |
| 20260904011522 | 81 | 160 | 5.0 | 7.0 | 0.00 | 0.00 | 0.00 | 28 | 1012.9 |
| 20260904010316 | 83 | 160 | 4.0 | 8.0 | 0.00 | 0.00 | 0.00 | 27 | 1012.9 |
| 20260904005917 | 84 | 182 | 6.0 | 9.0 | 0.00 | 0.00 | 0.00 | 27 | 1012.8 |
| 20260904005515 | 84 | 180 | 4.0 | 7.0 | 0.00 | 0.00 | 0.00 | 27 | 1012.9 |
| 20260904005113 | 84 | 171 | 4.0 | 6.0 | 0.00 | 0.00 | 0.00 | 27 | 1013.0 |
| 20260904004711 | 84 | 173 | 6.0 | 9.0 | 0.00 | 0.00 | 0.00 | 27 | 1012.9 |
| 20260904004309 | 85 | 185 | 4.0 | 6.0 | 0.00 | 0.00 | 0.00 | 27 | 1012.9 |
| 20260904003909 | 84 | 173 | 4.0 | 7.0 | 0.00 | 0.00 | 0.00 | 26 | 1012.9 |
| 20260904003106 | 84 | 182 | 7.0 | 10.0 | 0.00 | 0.00 | 0.00 | 26 | 1013.0 |
| 20260904001902 | 84 | 150 | 6.0 | 10.0 | 0.00 | 0.00 | 0.00 | 27 | 1013.0 |
| 20260904001501 | 84 | 180 | 6.0 | 8.0 | 0.00 | 0.00 | 0.00 | 27 | 1013.0 |
| 20260904001059 | 85 | 159 | 5.0 | 8.0 | 0.00 | 0.00 | 0.00 | 27 | 1013.1 |
| 20260904000658 | 85 | 168 | 4.0 | 7.0 | 0.00 | 0.00 | 0.00 | 26 | 1013.1 |
| 20260904000257 | 85 | 144 | 3.0 | 9.0 | 0.00 | 0.00 | 0.00 | 26 | 1013.2 |
| 20260903235855 | 85 | 175 | 5.0 | 9.0 | 0.00 | 0.00 | 0.00 | 27 | 1013.2 |
| 20260903235454 | 86 | 195 | 5.0 | 8.0 | 0.00 | 0.00 | 0.00 | 27 | 1013.1 |
| 20260903235056 | 86 | 180 | 7.0 | 10.0 | 0.00 | 0.00 | 0.00 | 26 | 1013.1 |
| 20260903234251 | 86 | 173 | 6.0 | 10.0 | 0.00 | 0.00 | 0.00 | 26 | 1013.2 |
| 20260903233849 | 87 | 173 | 4.0 | 10.0 | 0.00 | 0.00 | 0.00 | 26 | 1013.2 |
| 20260903233447 | 88 | 112 | 4.0 | 11.0 | 0.00 | 0.00 | 0.00 | 26 | 1013.2 |
| 20260903233046 | 88 | 180 | 11.0 | 11.0 | 0.00 | 0.00 | 0.00 | 26 | 1013.2 |
| 20260903232645 | 88 | 191 | 8.0 | 9.0 | 0.00 | 0.00 | 0.00 | 26 | 1013.3 |
| 20260903232244 | 89 | 199 | 5.0 | 11.0 | 0.00 | 0.00 | 0.00 | 26 | 1013.3 |
| 20260903231843 | 89 | 155 | 4.0 | 10.0 | 0.00 | 0.00 | 0.00 | 26 | 1013.4 |
| 20260903231040 | 89 | 166 | 5.0 | 9.0 | 0.00 | 0.00 | 0.00 | 26 | 1013.4 |
| 20260903230639 | 90 | 184 | 4.0 | 8.0 | 0.00 | 0.00 | 0.00 | 26 | 1013.5 |
| 20260903230238 | 90 | 211 | 6.0 | 9.0 | 0.00 | 0.00 | 0.00 | 26 | 1013.5 |
| 20260903225837 | 89 | 184 | 6.0 | 10.0 | 0.00 | 0.00 | 0.00 | 26 | 1013.6 |
| 20260903225435 | 89 | 180 | 4.0 | 9.0 | 0.00 | 0.00 | 0.00 | 26 | 1013.5 |
| 20260903225034 | 89 | 197 | 6.0 | 12.0 | 0.00 | 0.00 | 0.00 | 26 | 1013.6 |
| 20260903224632 | 90 | 177 | 7.0 | 9.0 | 0.00 | 0.00 | 0.00 | 26 | 1013.6 |
| 20260903224231 | 90 | 176 | 8.0 | 15.0 | 0.00 | 0.00 | 0.00 | 26 | 1013.6 |
| 20260903223830 | 90 | 75 | 2.0 | 9.0 | 0.00 | 0.00 | 0.00 | 26 | 1013.6 |
| 20260903223428 | 89 | 131 | 3.0 | 9.0 | 0.00 | 0.00 | 0.00 | 26 | 1013.7 |
| 20260903223028 | 90 | 160 | 6.0 | 8.0 | 0.00 | 0.00 | 0.00 | 26 | 1013.8 |
| 20260903222626 | 90 | 196 | 4.0 | 10.0 | 0.00 | 0.00 | 0.00 | 26 | 1013.9 |
| 20260903222226 | 90 | 168 | 5.0 | 8.0 | 0.00 | 0.00 | 0.00 | 26 | 1013.9 |
| 20260903221823 | 91 | 162 | 6.0 | 10.0 | 0.00 | 0.00 | 0.00 | 25 | 1013.9 |
| 20260903221422 | 91 | 193 | 10.0 | 10.0 | 0.00 | 0.00 | 0.00 | 25 | 1013.9 |
| 20260903220620 | 91 | 173 | 4.0 | 9.0 | 0.00 | 0.00 | 0.00 | 25 | 1014.1 |
| 20260903220221 | 91 | 182 | 6.0 | 11.0 | 0.00 | 0.00 | 0.00 | 25 | 1014.1 |
| 20260903215014 | 92 | 202 | 1.0 | 7.0 | 0.00 | 0.00 | 0.00 | 25 | 1014.2 |
| 20260903214613 | 92 | 205 | 7.0 | 9.0 | 0.00 | 0.00 | 0.00 | 25 | 1014.3 |
| 20260903214212 | 91 | 106 | 3.0 | 7.0 | 0.00 | 0.00 | 0.00 | 25 | 1014.2 |
| 20260903213811 | 91 | 69 | 1.0 | 10.0 | 0.00 | 0.00 | 0.00 | 25 | 1014.2 |
| 20260903213008 | 90 | 148 | 7.0 | 11.0 | 0.00 | 0.00 | 0.00 | 25 | 1014.3 |
| 20260903212608 | 91 | 189 | 8.0 | 12.0 | 0.00 | 0.00 | 0.00 | 25 | 1014.4 |
| 20260903211001 | 90 | 106 | 6.0 | 6.0 | 0.00 | 0.00 | 0.00 | 25 | 1014.4 |
| 20260903210159 | 89 | 135 | 7.0 | 13.0 | 0.00 | 0.00 | 0.00 | 25 | 1014.4 |
| 20260903205759 | 91 | 167 | 6.0 | 0.0 | 0.00 | 0.00 | 0.00 | 25 | 1014.5 |
| 20260903204956 | 91 | 135 | 5.0 | 6.0 | 0.00 | 0.00 | 0.00 | 25 | 1014.5 |
| 20260903204553 | 91 | 198 | 6.0 | 9.0 | 0.00 | 0.00 | 0.00 | 25 | 1014.5 |
| 20260903203751 | 91 | 221 | 5.0 | 8.0 | 0.00 | 0.00 | 0.00 | 25 | 1014.5 |
| 20260903203352 | 91 | 177 | 8.0 | 10.0 | 0.00 | 0.00 | 0.00 | 25 | 1014.5 |
| 20260903202949 | 91 | 191 | 6.0 | 8.0 | 0.00 | 0.00 | 0.00 | 25 | 1014.5 |
| 20260903195738 | 90 | 168 | 6.0 | 7.0 | 0.00 | 0.00 | 0.00 | 26 | 1014.8 |
| 20260903195338 | 89 | 261 | 2.0 | 8.0 | 0.00 | 0.00 | 0.00 | 26 | 1014.8 |
| 20260903194936 | 88 | 103 | 1.0 | 10.0 | 0.00 | 0.00 | 0.00 | 25 | 1014.8 |
| 20260903194536 | 85 | 180 | 5.0 | 7.0 | 0.00 | 0.00 | 0.00 | 26 | 1014.9 |
| 20260903193732 | 86 | 128 | 10.0 | 10.0 | 0.00 | 0.00 | 0.00 | 26 | 1014.9 |
| 20260903192929 | 88 | 184 | 3.0 | 5.0 | 0.00 | 0.00 | 0.00 | 26 | 1015.0 |
| 20260903192528 | 86 | 162 | 1.0 | 9.0 | 0.00 | 0.00 | 0.00 | 26 | 1015.1 |
| 20260903191726 | 86 | 141 | 6.0 | 9.0 | 0.00 | 0.00 | 0.00 | 26 | 1015.2 |
| 20260903191325 | 86 | 180 | 4.0 | 7.0 | 0.00 | 0.00 | 0.00 | 27 | 1015.3 |
| 20260903190922 | 86 | 162 | 2.0 | 9.0 | 0.00 | 0.00 | 0.00 | 27 | 1015.4 |
| 20260903185719 | 85 | 126 | 2.0 | 9.0 | 0.00 | 0.00 | 0.00 | 27 | 1015.5 |
| 20260903185318 | 87 | 187 | 3.0 | 8.0 | 0.00 | 0.00 | 0.00 | 27 | 1015.6 |
| 20260903184919 | 86 | 195 | 7.0 | 7.0 | 0.00 | 0.00 | 0.00 | 28 | 1015.7 |
| 20260903184516 | 85 | 184 | 4.0 | 6.0 | 0.00 | 0.00 | 0.00 | 28 | 1015.6 |
| 20260903184114 | 84 | 7 | 0.0 | 7.0 | 0.00 | 0.00 | 0.00 | 28 | 1015.6 |
| 20260903183714 | 82 | 139 | 8.0 | 12.0 | 0.00 | 0.00 | 0.00 | 1015.7 | |
| 20260903183312 | 82 | 139 | 7.0 | 10.0 | 0.00 | 0.00 | 0.00 | 28 | 1015.8 |
| 20260903182910 | 82 | 151 | 8.0 | 11.0 | 0.00 | 0.00 | 0.00 | 28 | 1015.9 |
| 20260903182107 | 84 | 137 | 11.0 | 11.0 | 0.00 | 0.00 | 0.00 | 29 | 1016.0 |
| 20260903181709 | 83 | 130 | 7.0 | 11.0 | 0.00 | 0.00 | 0.00 | 29 | 1016.1 |
| 20260903181309 | 83 | 130 | 6.0 | 8.0 | 0.00 | 0.00 | 0.00 | 29 | 1016.0 |
| 20260903180101 | 81 | 130 | 5.0 | 7.0 | 0.00 | 0.00 | 0.00 | 30 | 1016.0 |
| 20260903175659 | 81 | 132 | 4.0 | 8.0 | 0.00 | 0.00 | 0.00 | 30 | 1016.1 |
| 20260903175258 | 83 | 114 | 8.0 | 9.0 | 0.00 | 0.00 | 0.00 | 31 | 1016.1 |
| 20260903174857 | 85 | 186 | 2.0 | 7.0 | 0.00 | 0.00 | 0.00 | 31 | 1016.1 |
| 20260903174456 | 85 | 195 | 3.0 | 7.0 | 0.00 | 0.00 | 0.00 | 31 | 1016.1 |